M I D A S
Marine Information and Data Acquisition System
Tripno 1832 of the Zeeleeuw from 2009-09-08 06:42:32 to 2009-09-08 15:46:46
Back to CruiseResearch ActivitiesStationsMapUnderway DataData graphs

EquipmentUnitsComments
TimeDGPSUTC
LatitudeDGPSDM.mWGS84
LongitudeDGPSDM.mWGS84
SpeedMeteo Stationm/sRelative wind speed
DirectionMeteo StationdegRelative wind direction
TemperatureMeteo Stationdeg CelciusAir temperature
PressureMeteo StationPaAtmospheric pressure
HumidityMeteo Station%Relative humidity
Missing or incorrect values are displayed as -999
Metereological data collected by the RV Zeeleeuw from 2009-09-08 06:35:41 to 2009-09-08 17:01:32
                                                                                    Next 1000 lines
Time Latitude Longitude Speed Direction Temperature Pressure Humidity
2009-09-08 06:35:50 51°13.662 2°55.954 2.2 360 15.7 102000 43
2009-09-08 06:35:56 51°13.663 2°55.95 1.4 360 15.7 102000 43
2009-09-08 06:36:01 51°13.664 2°55.946 2.1 14 15.7 102000 43
2009-09-08 06:36:06 51°13.665 2°55.942 2.2 4 15.7 102000 41
2009-09-08 06:36:12 51°13.667 2°55.935 1.4 355 15.7 102000 41
2009-09-08 06:36:17 51°13.668 2°55.93 1.6 359 15.7 102000 43
2009-09-08 06:36:23 51°13.67 2°55.923 1.7 1 15.7 102000 43
2009-09-08 06:36:29 51°13.672 2°55.915 1.8 4 15.7 102000 41
2009-09-08 06:36:34 51°13.674 2°55.908 2 7 15.7 102000 41
2009-09-08 06:36:40 51°13.677 2°55.899 2 14 15.7 102000 41
2009-09-08 06:36:45 51°13.679 2°55.892 1.8 27 15.7 102000 41
2009-09-08 06:36:50 51°13.681 2°55.884 1.9 30 15.7 102000 40
2009-09-08 06:36:54 51°13.682 2°55.877 2.5 30 15.7 102000 40
2009-09-08 06:37:00 51°13.684 2°55.868 2.6 15 15.7 102000 41
2009-09-08 06:37:05 51°13.686 2°55.859 2.3 15 15.7 102000 41
2009-09-08 06:37:09 51°13.687 2°55.852 2.4 19 15.7 102000 42
2009-09-08 06:37:14 51°13.689 2°55.844 2.4 23 15.7 102000 42
2009-09-08 06:37:20 51°13.691 2°55.833 2.4 30 15.7 102000 43
2009-09-08 06:37:25 51°13.692 2°55.825 2.4 29 15.7 102000 43
2009-09-08 06:37:30 51°13.693 2°55.817 2 34 15.7 102000 41
2009-09-08 06:37:35 51°13.694 2°55.809 2 41 15.7 102000 41
2009-09-08 06:37:40 51°13.694 2°55.801 2.2 37 15.7 102000 41
2009-09-08 06:37:45 51°13.695 2°55.794 2.4 34 15.7 102000 41
2009-09-08 06:37:50 51°13.695 2°55.787 3.2 34 15.7 102000 41
2009-09-08 06:37:54 51°13.695 2°55.781 2.4 25 15.7 102000 41
2009-09-08 06:38:00 51°13.695 2°55.774 2.3 29 15.7 102000 41
2009-09-08 06:38:05 51°13.695 2°55.767 2.1 40 15.7 102000 41
2009-09-08 06:38:10 51°13.695 2°55.761 2.1 41 15.7 102000 43
2009-09-08 06:38:14 51°13.695 2°55.757 1.7 43 15.7 102000 43
2009-09-08 06:38:19 51°13.695 2°55.752 1.8 42 15.7 102000 43
2009-09-08 06:38:24 51°13.694 2°55.748 1.8 41 15.7 102000 43
2009-09-08 06:38:29 51°13.694 2°55.744 2.7 39 15.7 102000 43
2009-09-08 06:38:34 51°13.694 2°55.742 3 37 15.7 102000 43
2009-09-08 06:38:38 51°13.694 2°55.74 2.3 31 15.7 102000 41
2009-09-08 06:38:43 51°13.694 2°55.739 2.7 38 15.7 102000 41
2009-09-08 06:38:48 51°13.694 2°55.738 3.1 30 15.7 102000 43
2009-09-08 06:38:53 51°13.695 2°55.737 2.8 31 15.7 102000 43
2009-09-08 06:38:58 51°13.696 2°55.737 2.7 44 15.7 102000 41
2009-09-08 06:39:02 51°13.696 2°55.737 2.2 33 15.7 102000 41
2009-09-08 06:39:07 51°13.698 2°55.737 2.1 37 15.7 102000 43
2009-09-08 06:39:12 51°13.699 2°55.738 1.9 76 15.7 102000 43
2009-09-08 06:39:17 51°13.701 2°55.738 1.9 39 15.7 102000 41
2009-09-08 06:39:22 51°13.703 2°55.739 1.6 81 15.7 102000 41
2009-09-08 06:39:26 51°13.705 2°55.739 1.7 39 15.7 102000 41
2009-09-08 06:39:30 51°13.707 2°55.739 1.4 81 15.7 102000 41
2009-09-08 06:39:36 51°13.711 2°55.739 1.4 33 15.7 102000 42
2009-09-08 06:39:41 51°13.714 2°55.738 1.2 78 15.7 102000 42
2009-09-08 06:39:46 51°13.717 2°55.737 0.8 26 15.7 102000 42
2009-09-08 06:39:51 51°13.721 2°55.736 0.7 80 15.7 102000 42
2009-09-08 06:39:56 51°13.724 2°55.734 0.4 22 15.7 102000 42
2009-09-08 06:40:01 51°13.728 2°55.731 0.1 79 15.7 102000 42
2009-09-08 06:40:06 51°13.732 2°55.727 0.1 254 15.7 102000 42
2009-09-08 06:40:11 51°13.736 2°55.723 0.1 277 15.7 102000 42
2009-09-08 06:40:16 51°13.741 2°55.718 0.8 315 15.7 102000 42
2009-09-08 06:40:21 51°13.746 2°55.713 1 281 15.7 102000 42
2009-09-08 06:40:26 51°13.751 2°55.708 0.7 251 15.7 102000 41
2009-09-08 06:40:31 51°13.757 2°55.702 0.6 281 15.7 102000 41
2009-09-08 06:40:36 51°13.763 2°55.696 0.5 253 15.7 102000 42
2009-09-08 06:40:41 51°13.77 2°55.69 0.3 281 15.7 102000 42
2009-09-08 06:40:46 51°13.777 2°55.683 0.3 250 15.7 102000 40
2009-09-08 06:40:50 51°13.782 2°55.678 0.2 282 15.7 102000 40
2009-09-08 06:40:56 51°13.791 2°55.668 0.1 24 15.7 102000 41
2009-09-08 06:41:01 51°13.8 2°55.661 0.1 281 15.7 102000 41
2009-09-08 06:41:06 51°13.808 2°55.654 -999 324 15.8 102000 42
2009-09-08 06:41:11 51°13.817 2°55.647 -999 -999 15.8 102000 42
2009-09-08 06:41:16 51°13.827 2°55.639 -999 23 15.8 102000 42
2009-09-08 06:41:21 51°13.836 2°55.632 -999 281 15.8 102000 42
2009-09-08 06:41:26 51°13.846 2°55.624 -999 236 15.8 102000 42
2009-09-08 06:41:31 51°13.856 2°55.616 -999 282 15.8 102000 42
2009-09-08 06:41:36 51°13.866 2°55.609 -999 324 15.8 102000 42
2009-09-08 06:41:41 51°13.877 2°55.601 1.9 285 15.8 102000 42
2009-09-08 06:41:46 51°13.887 2°55.594 1.5 324 15.8 102000 42
2009-09-08 06:41:50 51°13.896 2°55.588 1.6 279 15.8 102000 42
2009-09-08 06:41:56 51°13.908 2°55.578 1.4 330 15.8 102000 42
2009-09-08 06:42:01 51°13.919 2°55.571 1.6 286 15.8 102000 42
2009-09-08 06:42:06 51°13.93 2°55.563 1.9 327 15.8 102000 40
2009-09-08 06:42:10 51°13.939 2°55.557 1.8 -999 15.8 102000 40
2009-09-08 06:42:16 51°13.953 2°55.548 1.2 332 15.8 102000 43
2009-09-08 06:42:21 51°13.964 2°55.539 1.9 282 15.8 102000 43
2009-09-08 06:42:26 51°13.975 2°55.532 2 327 15.8 102000 41
2009-09-08 06:42:31 51°13.987 2°55.523 2 286 15.8 102000 41
2009-09-08 06:42:36 51°13.999 2°55.515 1.9 332 15.8 102000 43
2009-09-08 06:42:41 51°14.01 2°55.507 2.4 279 15.8 102000 43
2009-09-08 06:42:46 51°14.022 2°55.498 2.5 324 15.8 102000 43
2009-09-08 06:42:51 51°14.035 2°55.49 2.9 280 15.8 102000 43
2009-09-08 06:42:56 51°14.047 2°55.481 2.2 327 15.8 102000 43
2009-09-08 06:43:01 51°14.06 2°55.472 2.6 281 15.8 102000 43
2009-09-08 06:43:06 51°14.072 2°55.463 2.7 327 15.8 102000 42
2009-09-08 06:43:11 51°14.085 2°55.454 2.4 286 15.8 102000 42
2009-09-08 06:43:16 51°14.097 2°55.444 2.8 326 15.8 102000 43
2009-09-08 06:43:21 51°14.11 2°55.433 2.1 279 15.8 102000 43
2009-09-08 06:43:26 51°14.123 2°55.423 2.5 326 15.8 102000 43
2009-09-08 06:43:31 51°14.136 2°55.412 2.4 281 15.8 102000 43
2009-09-08 06:43:36 51°14.148 2°55.4 2 320 15.8 102000 42
2009-09-08 06:43:41 51°14.161 2°55.387 2.3 284 15.8 102000 42
2009-09-08 06:43:46 51°14.173 2°55.374 2.4 323 15.9 102000 43
2009-09-08 06:43:51 51°14.185 2°55.36 2.4 277 15.9 102000 43
2009-09-08 06:43:56 51°14.197 2°55.346 2 323 15.9 102000 41
2009-09-08 06:44:01 51°14.208 2°55.331 2.6 279 15.9 102000 41
2009-09-08 06:44:06 51°14.219 2°55.316 2.7 320 15.9 102000 41
2009-09-08 06:44:11 51°14.23 2°55.299 2.4 284 15.9 102000 41
2009-09-08 06:44:16 51°14.241 2°55.283 2.3 234 15.9 102000 43
2009-09-08 06:44:21 51°14.252 2°55.266 2.9 277 15.9 102000 43
2009-09-08 06:44:26 51°14.262 2°55.249 3 317 15.9 102000 41
2009-09-08 06:44:31 51°14.273 2°55.232 2.6 286 15.9 102000 41
2009-09-08 06:44:36 51°14.283 2°55.215 3.2 20 15.9 101990 41
2009-09-08 06:44:41 51°14.294 2°55.197 3.6 281 15.9 101990 41
2009-09-08 06:44:46 51°14.304 2°55.179 2.4 242 15.9 102000 42
2009-09-08 06:44:50 51°14.313 2°55.165 3 279 15.9 102000 42
2009-09-08 06:44:56 51°14.326 2°55.143 2.9 26 15.9 102000 42
2009-09-08 06:45:01 51°14.337 2°55.125 2.9 278 15.9 102000 42
2009-09-08 06:45:06 51°14.347 2°55.106 3.6 34 16 102000 41
2009-09-08 06:45:11 51°14.358 2°55.088 2.7 -999 16 102000 41
2009-09-08 06:45:16 51°14.37 2°55.07 3.1 323 16 101990 43
2009-09-08 06:45:21 51°14.381 2°55.052 3 282 16 101990 43
2009-09-08 06:45:26 51°14.393 2°55.034 3.5 321 16 101990 43
2009-09-08 06:45:31 51°14.404 2°55.017 1.7 285 16 101990 43
2009-09-08 06:45:36 51°14.416 2°55 1.9 21 16 101990 43
2009-09-08 06:45:41 51°14.428 2°54.984 2.2 279 16 101990 43
2009-09-08 06:45:46 51°14.441 2°54.968 1.7 19 16 101990 41
2009-09-08 06:45:51 51°14.453 2°54.953 1.9 282 16 101990 41
2009-09-08 06:45:56 51°14.466 2°54.938 2.2 323 16 101990 43
2009-09-08 06:46:01 51°14.48 2°54.924 2.3 284 16 101990 43
2009-09-08 06:46:06 51°14.493 2°54.91 2.9 21 16.1 102000 43
2009-09-08 06:46:11 51°14.506 2°54.897 2.3 -999 16.1 102000 43
2009-09-08 06:46:16 51°14.519 2°54.882 2.4 40 16.1 101990 43
2009-09-08 06:46:21 51°14.532 2°54.868 2.4 283 16.1 101990 43
2009-09-08 06:46:26 51°14.546 2°54.854 3.1 22 16.1 101990 43
2009-09-08 06:46:31 51°14.559 2°54.841 3.2 284 16.1 101990 43
2009-09-08 06:46:36 51°14.572 2°54.827 3 323 16.1 102000 41
2009-09-08 06:46:41 51°14.586 2°54.814 3.6 283 16.1 102000 41
2009-09-08 06:46:46 51°14.599 2°54.8 5 333 16.2 101990 42
2009-09-08 06:46:51 51°14.613 2°54.787 4.8 285 16.2 101990 42
2009-09-08 06:46:56 51°14.626 2°54.773 4 332 16.2 102000 43
2009-09-08 06:47:01 51°14.639 2°54.76 3.7 286 16.2 102000 43
2009-09-08 06:47:06 51°14.652 2°54.747 5 325 16.2 102000 41
2009-09-08 06:47:11 51°14.666 2°54.734 4.7 -999 16.2 102000 41
2009-09-08 06:47:16 51°14.679 2°54.72 4.3 324 16.3 102000 43
2009-09-08 06:47:21 51°14.693 2°54.707 3.9 283 16.3 102000 43
2009-09-08 06:47:26 51°14.706 2°54.694 4.9 324 16.3 102000 41
2009-09-08 06:47:30 51°14.717 2°54.683 4.3 278 16.3 102000 41
2009-09-08 06:47:36 51°14.733 2°54.666 3.9 322 16.3 102000 42
2009-09-08 06:47:41 51°14.746 2°54.652 4.8 278 16.3 102000 42
2009-09-08 06:47:46 51°14.759 2°54.638 4.1 322 16.4 102000 42
2009-09-08 06:47:50 51°14.769 2°54.627 4 283 16.4 102000 42
2009-09-08 06:47:56 51°14.785 2°54.61 4.5 325 16.4 102000 43
2009-09-08 06:48:01 51°14.798 2°54.596 4.2 284 16.4 102000 43
2009-09-08 06:48:06 51°14.811 2°54.582 3.9 324 16.4 101990 42
2009-09-08 06:48:10 51°14.822 2°54.571 3.9 -999 16.4 101990 42
2009-09-08 06:48:16 51°14.837 2°54.555 3.4 324 16.4 102000 43
2009-09-08 06:48:21 51°14.851 2°54.541 4 279 16.4 102000 43
2009-09-08 06:48:26 51°14.864 2°54.528 3.8 322 16.4 102000 41
2009-09-08 06:48:30 51°14.875 2°54.518 3.9 279 16.4 102000 41
2009-09-08 06:48:36 51°14.89 2°54.501 3.3 317 16.5 102000 43
2009-09-08 06:48:41 51°14.904 2°54.488 3.6 279 16.5 102000 43
2009-09-08 06:48:46 51°14.917 2°54.475 3.6 318 16.5 101990 41
2009-09-08 06:48:51 51°14.93 2°54.461 2.9 280 16.5 101990 41
2009-09-08 06:48:56 51°14.943 2°54.448 3.3 316 16.5 102000 41
2009-09-08 06:49:01 51°14.956 2°54.435 2.9 279 16.5 102000 41
2009-09-08 06:49:06 51°14.97 2°54.422 2.7 39 16.5 101990 41
2009-09-08 06:49:11 51°14.983 2°54.409 3.4 -999 16.5 101990 41
2009-09-08 06:49:16 51°14.996 2°54.396 3.3 40 16.6 102000 41
2009-09-08 06:49:21 51°15.01 2°54.382 3 285 16.6 102000 41
2009-09-08 06:49:26 51°15.023 2°54.369 2.5 39 16.6 102000 43
2009-09-08 06:49:31 51°15.036 2°54.356 2.4 286 16.6 102000 43
2009-09-08 06:49:36 51°15.05 2°54.343 2.2 38 16.6 101990 43
2009-09-08 06:49:41 51°15.063 2°54.33 2.3 279 16.6 101990 43
2009-09-08 06:49:46 51°15.077 2°54.316 3 39 16.6 101990 43
2009-09-08 06:49:51 51°15.09 2°54.303 2.9 278 16.6 101990 43
2009-09-08 06:49:56 51°15.103 2°54.29 2.9 37 16.6 102000 42
2009-09-08 06:50:01 51°15.117 2°54.277 3 285 16.6 102000 42
2009-09-08 06:50:06 51°15.131 2°54.265 2.5 233 16.6 102000 41
2009-09-08 06:50:10 51°15.141 2°54.254 2.8 -999 16.6 102000 41
2009-09-08 06:50:16 51°15.158 2°54.239 2.3 33 16.6 101990 41
2009-09-08 06:50:21 51°15.171 2°54.225 2.4 279 16.6 101990 41
2009-09-08 06:50:26 51°15.185 2°54.212 2.2 238 16.7 102000 42
2009-09-08 06:50:30 51°15.195 2°54.202 2.2 283 16.7 102000 42
2009-09-08 06:50:36 51°15.212 2°54.186 2.4 22 16.7 101990 42
2009-09-08 06:50:41 51°15.225 2°54.173 2.7 285 16.7 101990 42
2009-09-08 06:50:46 51°15.238 2°54.16 2.5 238 16.7 101990 43
2009-09-08 06:50:51 51°15.252 2°54.147 2.5 280 16.7 101990 43
2009-09-08 06:50:56 51°15.265 2°54.134 2.1 31 16.7 101990 43
2009-09-08 06:51:01 51°15.279 2°54.12 2.3 280 16.7 101990 41
2009-09-08 06:51:06 51°15.292 2°54.107 2.5 237 16.7 101990 41
2009-09-08 06:51:11 51°15.305 2°54.094 2.2 22 16.7 101990 41
2009-09-08 06:51:16 51°15.319 2°54.081 2.3 34 16.7 101990 41
2009-09-08 06:51:21 51°15.333 2°54.068 2.7 279 16.7 102000 41
2009-09-08 06:51:26 51°15.346 2°54.056 2.4 33 16.8 102000 42
2009-09-08 06:51:31 51°15.36 2°54.042 2.9 278 16.8 102000 42
2009-09-08 06:51:36 51°15.373 2°54.029 2.5 33 16.8 102000 42
2009-09-08 06:51:41 51°15.386 2°54.016 2.7 286 16.8 101990 42
2009-09-08 06:51:46 51°15.4 2°54.004 2.8 232 16.8 101990 42
2009-09-08 06:51:51 51°15.414 2°53.991 2.5 286 16.8 102000 41
2009-09-08 06:51:56 51°15.428 2°53.979 3 31 16.8 102000 41
2009-09-08 06:52:01 51°15.442 2°53.966 2.4 279 16.8 101990 43
2009-09-08 06:52:06 51°15.455 2°53.954 2.7 31 16.8 102000 42
2009-09-08 06:52:11 51°15.469 2°53.941 3.1 280 16.8 102000 42
2009-09-08 06:52:16 51°15.483 2°53.928 3.1 37 16.8 102000 42
2009-09-08 06:52:21 51°15.497 2°53.916 2.7 285 16.8 102000 42
2009-09-08 06:52:26 51°15.511 2°53.903 3.2 32 16.8 102000 42
2009-09-08 06:52:30 51°15.522 2°53.893 3.4 278 16.8 102000 40
2009-09-08 06:52:36 51°15.538 2°53.878 3 37 16.8 102000 40
2009-09-08 06:52:41 51°15.552 2°53.865 3.5 277 16.8 102000 40
2009-09-08 06:52:46 51°15.566 2°53.852 3.3 32 16.8 102000 40
2009-09-08 06:52:50 51°15.577 2°53.842 4.2 278 16.8 102000 40
2009-09-08 06:52:56 51°15.593 2°53.826 3.1 40 16.8 102000 42
2009-09-08 06:53:01 51°15.607 2°53.813 2.8 280 16.8 102000 42
2009-09-08 06:53:06 51°15.621 2°53.8 3.2 35 16.8 102000 42
2009-09-08 06:53:11 51°15.634 2°53.787 3.6 285 16.8 102000 42
2009-09-08 06:53:16 51°15.648 2°53.775 3.2 32 16.8 102000 42
2009-09-08 06:53:21 51°15.662 2°53.761 3.4 283 16.8 102000 41
2009-09-08 06:53:26 51°15.675 2°53.748 3.5 233 16.8 102000 43
2009-09-08 06:53:31 51°15.689 2°53.735 3.6 286 16.8 102000 43
2009-09-08 06:53:36 51°15.703 2°53.721 3.7 234 16.9 102000 42
2009-09-08 06:53:41 51°15.716 2°53.708 3.3 279 16.9 102000 42
2009-09-08 06:53:46 51°15.73 2°53.695 3.5 37 16.9 102000 42
2009-09-08 06:53:50 51°15.741 2°53.685 3.6 285 16.9 102000 42
2009-09-08 06:53:56 51°15.757 2°53.669 3.9 32 16.9 102000 42
2009-09-08 06:54:01 51°15.771 2°53.656 3.9 278 16.9 102000 42
2009-09-08 06:54:06 51°15.785 2°53.643 4.4 37 16.9 102000 42
2009-09-08 06:54:11 51°15.799 2°53.63 3.6 279 16.9 102000 42
2009-09-08 06:54:16 51°15.812 2°53.617 4.1 233 16.9 102000 42
2009-09-08 06:54:21 51°15.826 2°53.603 4.1 280 16.9 102000 42
2009-09-08 06:54:26 51°15.84 2°53.59 3.4 239 16.9 102000 42
2009-09-08 06:54:31 51°15.853 2°53.577 3.8 278 16.9 101990 42
2009-09-08 06:54:36 51°15.867 2°53.564 3.3 31 16.9 102000 42
2009-09-08 06:54:41 51°15.881 2°53.551 3.9 285 16.9 102000 42
2009-09-08 06:54:46 51°15.895 2°53.538 3.9 36 16.9 102000 42
2009-09-08 06:54:50 51°15.906 2°53.527 3.9 285 16.8 102000 41
2009-09-08 06:54:56 51°15.922 2°53.511 3.9 236 16.8 102000 42
2009-09-08 06:55:01 51°15.936 2°53.498 3.2 279 16.8 102000 42
2009-09-08 06:55:06 51°15.95 2°53.485 3.5 234 16.8 102000 42
2009-09-08 06:55:10 51°15.961 2°53.475 2.8 281 16.8 102000 42
2009-09-08 06:55:16 51°15.977 2°53.459 3.5 36 16.8 102000 41
2009-09-08 06:55:21 51°15.991 2°53.445 3.1 279 16.8 102000 41
2009-09-08 06:55:26 51°16.004 2°53.432 3.4 31 16.8 102000 39
2009-09-08 06:55:31 51°16.018 2°53.418 3.7 277 16.8 102000 39
2009-09-08 06:55:36 51°16.032 2°53.405 3.1 33 16.9 102000 41
2009-09-08 06:55:41 51°16.045 2°53.391 2.9 285 16.9 102000 41
2009-09-08 06:55:46 51°16.059 2°53.377 3.2 40 16.9 102000 42
2009-09-08 06:55:51 51°16.072 2°53.364 3.1 279 16.9 102000 42
2009-09-08 06:55:56 51°16.086 2°53.35 2.9 33 16.9 101990 41
2009-09-08 06:56:01 51°16.1 2°53.337 2.8 278 16.9 101990 41
2009-09-08 06:56:06 51°16.113 2°53.324 3.2 233 16.9 102000 41
2009-09-08 06:56:11 51°16.127 2°53.311 3.2 285 16.9 102000 41
2009-09-08 06:56:16 51°16.141 2°53.298 3.2 230 16.9 102000 42
2009-09-08 06:56:21 51°16.155 2°53.285 2.6 282 16.9 102000 42
2009-09-08 06:56:26 51°16.169 2°53.272 2.8 37 16.9 102000 41
2009-09-08 06:56:31 51°16.182 2°53.259 2.9 281 16.9 102000 41
2009-09-08 06:56:36 51°16.196 2°53.246 2.9 37 16.9 102000 42
2009-09-08 06:56:41 51°16.21 2°53.233 3.5 287 16.9 102000 42
2009-09-08 06:56:46 51°16.224 2°53.22 3.5 232 16.9 102000 42
2009-09-08 06:56:51 51°16.238 2°53.207 3.3 283 16.9 102000 41
2009-09-08 06:56:56 51°16.251 2°53.194 2.7 33 16.9 102000 41
2009-09-08 06:57:01 51°16.265 2°53.181 2.5 286 16.9 102000 41
2009-09-08 06:57:06 51°16.279 2°53.168 2.9 237 16.9 102000 43
2009-09-08 06:57:11 51°16.293 2°53.154 2.9 20 16.9 102000 43
2009-09-08 06:57:16 51°16.307 2°53.141 3.1 31 16.9 102000 42
2009-09-08 06:57:21 51°16.321 2°53.128 2.5 280 16.9 102000 42
2009-09-08 06:57:26 51°16.335 2°53.115 2.6 31 16.9 102000 42
2009-09-08 06:57:31 51°16.348 2°53.102 3.1 285 16.9 102000 42
2009-09-08 06:57:36 51°16.362 2°53.088 2.8 233 16.9 102000 42
2009-09-08 06:57:41 51°16.376 2°53.075 3.4 279 16.9 102000 42
2009-09-08 06:57:46 51°16.39 2°53.062 3.3 235 16.9 102000 42
2009-09-08 06:57:51 51°16.404 2°53.049 2.7 283 16.9 102000 43
2009-09-08 06:57:56 51°16.418 2°53.035 2.8 235 16.9 102000 43
2009-09-08 06:58:01 51°16.431 2°53.023 2.5 280 16.9 102000 41
2009-09-08 06:58:06 51°16.445 2°53.009 2.6 234 16.9 102000 41
2009-09-08 06:58:11 51°16.459 2°52.996 3.1 283 16.9 102000 41
2009-09-08 06:58:16 51°16.473 2°52.982 3.5 230 16.9 102000 41
2009-09-08 06:58:21 51°16.486 2°52.969 3.1 283 16.9 102000 41
2009-09-08 06:58:26 51°16.5 2°52.956 2.8 37 16.9 102000 42
2009-09-08 06:58:31 51°16.514 2°52.943 3.5 286 16.9 102000 42
2009-09-08 06:58:36 51°16.528 2°52.93 3 233 16.9 102000 41
2009-09-08 06:58:41 51°16.542 2°52.917 3.2 286 16.9 102000 41
2009-09-08 06:58:46 51°16.555 2°52.904 2.9 32 16.9 102000 41
2009-09-08 06:58:50 51°16.567 2°52.893 3 285 16.9 102000 42
2009-09-08 06:58:56 51°16.583 2°52.878 2.9 33 16.9 102000 41
2009-09-08 06:59:01 51°16.597 2°52.865 3.1 279 16.9 102000 41
2009-09-08 06:59:06 51°16.611 2°52.851 3 238 16.9 102000 41
2009-09-08 06:59:10 51°16.622 2°52.841 2.8 280 16.9 102000 41
2009-09-08 06:59:16 51°16.638 2°52.825 2.7 237 16.9 102000 43
2009-09-08 06:59:21 51°16.652 2°52.812 3.2 282 16.9 102000 43
2009-09-08 06:59:26 51°16.666 2°52.799 3 37 16.9 102000 41
2009-09-08 06:59:30 51°16.677 2°52.788 2.4 278 16.9 102000 41
2009-09-08 06:59:36 51°16.693 2°52.771 2.8 235 16.9 102000 41
2009-09-08 06:59:41 51°16.707 2°52.758 2.6 279 16.9 102000 41
2009-09-08 06:59:46 51°16.721 2°52.744 2.6 233 16.9 102000 41
2009-09-08 06:59:51 51°16.734 2°52.731 2.7 283 16.9 102000 41
2009-09-08 06:59:56 51°16.748 2°52.717 3.2 33 16.9 102000 41
2009-09-08 07:00:01 51°16.762 2°52.704 2.9 280 16.9 102000 41
2009-09-08 07:00:06 51°16.776 2°52.692 2.4 239 16.9 102000 42
2009-09-08 07:00:11 51°16.79 2°52.681 2.3 -999 16.9 102000 42
2009-09-08 07:00:16 51°16.804 2°52.67 2 237 16.9 102000 41
2009-09-08 07:00:21 51°16.818 2°52.66 1.5 281 16.9 102000 41
2009-09-08 07:00:26 51°16.833 2°52.651 2 30 16.9 102000 43
2009-09-08 07:00:31 51°16.847 2°52.641 2 281 16.9 102000 43
2009-09-08 07:00:36 51°16.862 2°52.633 2.1 39 16.9 102000 43
2009-09-08 07:00:41 51°16.877 2°52.625 1.6 282 16.9 102000 43
2009-09-08 07:00:46 51°16.891 2°52.617 1.6 29 16.9 102000 42
2009-09-08 07:00:51 51°16.906 2°52.609 1.8 282 16.9 102000 42
2009-09-08 07:00:56 51°16.921 2°52.602 1.5 39 16.9 102000 41
2009-09-08 07:01:01 51°16.936 2°52.594 1.9 278 16.9 102000 41
2009-09-08 07:01:06 51°16.95 2°52.587 1.5 318 16.9 102000 41
2009-09-08 07:01:11 51°16.965 2°52.58 1.8 -999 16.9 102000 41
2009-09-08 07:01:16 51°16.98 2°52.573 1.5 318 16.9 102000 42
2009-09-08 07:01:21 51°16.995 2°52.566 1.8 285 16.9 102000 42
2009-09-08 07:01:26 51°17.01 2°52.56 2.1 318 16.9 102000 43
2009-09-08 07:01:31 51°17.025 2°52.553 2.1 284 16.9 102000 43
2009-09-08 07:01:36 51°17.04 2°52.547 2.2 320 16.9 102000 43
2009-09-08 07:01:41 51°17.055 2°52.54 2.2 286 16.9 102000 43
2009-09-08 07:01:46 51°17.07 2°52.533 2.1 316 16.9 102000 43
2009-09-08 07:01:51 51°17.085 2°52.527 1.9 287 16.9 102000 43
2009-09-08 07:01:56 51°17.1 2°52.519 1.7 316 16.9 102000 41
2009-09-08 07:02:01 51°17.115 2°52.515 1.4 281 16.9 102000 41
2009-09-08 07:02:06 51°17.13 2°52.509 1.6 324 16.9 102000 43
2009-09-08 07:02:11 51°17.145 2°52.506 1.8 329 16.9 102000 43
2009-09-08 07:02:16 51°17.16 2°52.502 1.7 329 16.9 102000 43
2009-09-08 07:02:21 51°17.176 2°52.499 1.5 281 17 102000 41
2009-09-08 07:02:26 51°17.191 2°52.495 1.4 328 17 102000 43
2009-09-08 07:02:31 51°17.206 2°52.492 1.8 279 17 102000 43
2009-09-08 07:02:36 51°17.221 2°52.49 1.4 332 17 102000 43
2009-09-08 07:02:41 51°17.237 2°52.487 1.5 286 17 102000 41
2009-09-08 07:02:46 51°17.252 2°52.485 1.5 332 17 102000 41
2009-09-08 07:02:51 51°17.267 2°52.482 1.4 281 17 102000 41
2009-09-08 07:02:56 51°17.282 2°52.48 1.3 335 17 101990 41
2009-09-08 07:03:01 51°17.298 2°52.478 1.3 286 17 101990 41
2009-09-08 07:03:06 51°17.313 2°52.476 1.3 336 17 102000 41
2009-09-08 07:03:11 51°17.328 2°52.473 1.2 282 17 102000 41
2009-09-08 07:03:16 51°17.343 2°52.472 1.2 337 17 102000 41
2009-09-08 07:03:21 51°17.359 2°52.469 1.1 278 17 102000 41
2009-09-08 07:03:26 51°17.374 2°52.467 1.2 336 17 102000 41
2009-09-08 07:03:31 51°17.389 2°52.464 0.9 286 17 101990 42
2009-09-08 07:03:36 51°17.405 2°52.462 1 336 17 102000 43
2009-09-08 07:03:41 51°17.42 2°52.459 1 285 17 102000 43
2009-09-08 07:03:46 51°17.435 2°52.457 1 336 17 101990 41
2009-09-08 07:03:50 51°17.447 2°52.455 1.1 282 17 101990 41
2009-09-08 07:03:56 51°17.466 2°52.452 1 337 17 101990 43
2009-09-08 07:04:01 51°17.481 2°52.45 1.2 280 17 101990 43
2009-09-08 07:04:06 51°17.496 2°52.448 1.1 337 17 101990 41
2009-09-08 07:04:10 51°17.509 2°52.446 1 277 17 101990 41
2009-09-08 07:04:16 51°17.527 2°52.443 1.1 337 17 101990 42
2009-09-08 07:04:21 51°17.542 2°52.44 1.1 280 17 101990 42
2009-09-08 07:04:26 51°17.558 2°52.438 1.2 336 17 101990 41
2009-09-08 07:04:31 51°17.573 2°52.436 1.1 281 17 101990 41
2009-09-08 07:04:36 51°17.588 2°52.434 1.3 338 17 101990 43
2009-09-08 07:04:41 51°17.604 2°52.431 1.5 286 17 101990 43
2009-09-08 07:04:46 51°17.619 2°52.429 1.2 341 17 101990 42
2009-09-08 07:04:51 51°17.634 2°52.427 1.3 282 17 101990 42
2009-09-08 07:04:56 51°17.65 2°52.425 1.2 339 17 101990 41
2009-09-08 07:05:01 51°17.665 2°52.423 1.2 281 17 101990 41
2009-09-08 07:05:06 51°17.681 2°52.42 1.2 335 17 101990 43
2009-09-08 07:05:11 51°17.696 2°52.419 1.3 -999 17 101990 43
2009-09-08 07:05:16 51°17.712 2°52.416 1.2 335 17 101990 42
2009-09-08 07:05:21 51°17.727 2°52.415 1.6 277 17 101990 42
2009-09-08 07:05:26 51°17.742 2°52.413 1.4 332 17 101990 43
2009-09-08 07:05:31 51°17.758 2°52.411 1.3 277 17 101990 43
2009-09-08 07:05:36 51°17.773 2°52.409 1.3 334 17 101990 43
2009-09-08 07:05:41 51°17.789 2°52.407 1.3 282 17 101990 43
2009-09-08 07:05:46 51°17.804 2°52.405 1.3 333 17 101990 43
2009-09-08 07:05:51 51°17.819 2°52.403 1.3 280 17 101990 43
2009-09-08 07:05:56 51°17.835 2°52.401 1.2 333 17 101990 43
2009-09-08 07:06:01 51°17.85 2°52.399 1.3 280 17 101990 43
2009-09-08 07:06:06 51°17.866 2°52.397 1.3 334 17 101990 40
2009-09-08 07:06:11 51°17.881 2°52.395 1.2 333 17 101990 40
2009-09-08 07:06:16 51°17.897 2°52.393 1.6 330 17 101990 42
2009-09-08 07:06:21 51°17.912 2°52.391 1.4 276 17 101990 42
2009-09-08 07:06:26 51°17.928 2°52.389 1.5 333 17 101990 41
2009-09-08 07:06:31 51°17.943 2°52.386 1.5 277 17 101990 41
2009-09-08 07:06:36 51°17.958 2°52.384 1.5 333 17 101990 41
2009-09-08 07:06:41 51°17.974 2°52.382 1.5 282 17 101990 43
2009-09-08 07:06:46 51°17.989 2°52.379 1.3 332 17 101990 43
2009-09-08 07:06:51 51°18.005 2°52.377 1.4 281 17 101990 43
2009-09-08 07:06:56 51°18.02 2°52.374 1.4 332 17 101990 43
2009-09-08 07:07:01 51°18.036 2°52.372 1.5 286 17 101990 42
2009-09-08 07:07:06 51°18.051 2°52.368 1.2 327 17.1 101990 41
2009-09-08 07:07:11 51°18.066 2°52.366 1.7 -999 17.1 101990 41
2009-09-08 07:07:16 51°18.082 2°52.363 1.4 326 17.1 101990 41
2009-09-08 07:07:21 51°18.097 2°52.36 1.7 285 17.1 101990 41
2009-09-08 07:07:26 51°18.113 2°52.357 1.5 329 17.1 101990 41
2009-09-08 07:07:31 51°18.128 2°52.354 1.9 279 17.1 101990 41
2009-09-08 07:07:36 51°18.143 2°52.351 1.5 329 17.1 101990 43
2009-09-08 07:07:41 51°18.159 2°52.348 1.7 281 17.1 101990 43
2009-09-08 07:07:46 51°18.174 2°52.345 1.5 333 17.1 101990 42
2009-09-08 07:07:51 51°18.19 2°52.342 1.6 283 17.1 101990 42
2009-09-08 07:07:56 51°18.205 2°52.339 1.4 329 17.2 101990 41
2009-09-08 07:08:01 51°18.221 2°52.336 1.5 286 17.2 101990 41
2009-09-08 07:08:06 51°18.236 2°52.333 1.5 327 17.2 101990 43
2009-09-08 07:08:11 51°18.252 2°52.33 1.7 286 17.2 101990 43
2009-09-08 07:08:16 51°18.267 2°52.327 1.6 324 17.2 101990 42
2009-09-08 07:08:21 51°18.283 2°52.324 1.6 284 17.2 101990 42
2009-09-08 07:08:26 51°18.298 2°52.322 1.6 324 17.2 101990 41
2009-09-08 07:08:31 51°18.314 2°52.319 1.7 277 17.2 101990 41
2009-09-08 07:08:36 51°18.33 2°52.316 1.5 323 17.2 101990 44
2009-09-08 07:08:41 51°18.345 2°52.313 1.5 284 17.2 101990 44
2009-09-08 07:08:46 51°18.36 2°52.31 1.8 326 17.2 101990 40
2009-09-08 07:08:51 51°18.376 2°52.306 2.2 277 17.2 101990 40
2009-09-08 07:08:56 51°18.391 2°52.303 2.1 323 17.2 101990 40
2009-09-08 07:09:01 51°18.407 2°52.3 1.8 281 17.2 101990 44
2009-09-08 07:09:06 51°18.422 2°52.297 1.8 324 17.2 101990 42
2009-09-08 07:09:11 51°18.438 2°52.293 2.5 283 17.2 101990 42
2009-09-08 07:09:16 51°18.453 2°52.29 2.1 324 17.2 101990 42
2009-09-08 07:09:21 51°18.469 2°52.287 2.1 276 17.3 101990 42
2009-09-08 07:09:26 51°18.484 2°52.284 1.7 320 17.3 101990 44
2009-09-08 07:09:31 51°18.5 2°52.281 1.7 281 17.3 101990 44
2009-09-08 07:09:36 51°18.515 2°52.278 1.6 320 17.3 101990 44
2009-09-08 07:09:41 51°18.531 2°52.274 1.5 277 17.3 101990 42
2009-09-08 07:09:46 51°18.546 2°52.271 1.4 38 17.3 101990 44
2009-09-08 07:09:51 51°18.562 2°52.268 1.6 277 17.3 101990 44
2009-09-08 07:09:56 51°18.578 2°52.265 1.4 32 17.3 101990 44
2009-09-08 07:10:01 51°18.593 2°52.262 1.6 285 17.3 101990 44
2009-09-08 07:10:06 51°18.609 2°52.259 1.6 317 17.3 101990 44
2009-09-08 07:10:11 51°18.624 2°52.256 1.4 277 17.3 101990 44
2009-09-08 07:10:16 51°18.64 2°52.252 1.4 320 17.3 101990 44
2009-09-08 07:10:21 51°18.655 2°52.249 1.7 286 17.3 101990 44
2009-09-08 07:10:26 51°18.671 2°52.246 1.7 320 17.3 101990 44
2009-09-08 07:10:31 51°18.686 2°52.243 1.9 282 17.3 101990 44
2009-09-08 07:10:36 51°18.702 2°52.239 2 322 17.3 101990 43
2009-09-08 07:10:41 51°18.717 2°52.236 2.7 286 17.3 101990 43
2009-09-08 07:10:46 51°18.733 2°52.233 2.4 324 17.4 101990 41
2009-09-08 07:10:51 51°18.749 2°52.23 2.5 282 17.4 101990 41
2009-09-08 07:10:56 51°18.764 2°52.226 2.2 323 17.4 101990 42
2009-09-08 07:11:01 51°18.78 2°52.224 2.3 280 17.4 101990 42
2009-09-08 07:11:06 51°18.795 2°52.221 2.3 325 17.4 101990 42
2009-09-08 07:11:11 51°18.811 2°52.218 2.7 283 17.4 101990 42
2009-09-08 07:11:16 51°18.826 2°52.215 2.2 322 17.4 101990 42
2009-09-08 07:11:21 51°18.842 2°52.211 1.9 285 17.4 101990 42
2009-09-08 07:11:26 51°18.858 2°52.208 2 320 17.4 102000 42
2009-09-08 07:11:31 51°18.873 2°52.205 1.9 277 17.4 102000 42
2009-09-08 07:11:36 51°18.889 2°52.201 1.7 318 17.5 101990 44
2009-09-08 07:11:41 51°18.904 2°52.198 1.9 281 17.5 101990 44
2009-09-08 07:11:46 51°18.92 2°52.195 1.5 324 17.5 101990 43
2009-09-08 07:11:51 51°18.936 2°52.191 1.5 286 17.5 101990 43
2009-09-08 07:11:56 51°18.951 2°52.188 1.1 321 17.5 101990 43
2009-09-08 07:12:01 51°18.966 2°52.184 1.8 278 17.5 101990 43
2009-09-08 07:12:06 51°18.982 2°52.18 2.2 319 17.5 101990 43
2009-09-08 07:12:11 51°18.997 2°52.175 1.6 284 17.5 101990 43
2009-09-08 07:12:16 51°19.013 2°52.171 1.5 321 17.5 101990 44
2009-09-08 07:12:21 51°19.028 2°52.167 1.5 286 17.5 101990 44
2009-09-08 07:12:26 51°19.044 2°52.163 1.5 319 17.5 101990 44
2009-09-08 07:12:31 51°19.059 2°52.16 1.4 283 17.5 102000 42
2009-09-08 07:12:36 51°19.075 2°52.155 1.7 321 17.5 101990 42
2009-09-08 07:12:41 51°19.09 2°52.151 1.6 285 17.5 101990 42
2009-09-08 07:12:46 51°19.105 2°52.147 1.3 323 17.5 101990 42
2009-09-08 07:12:51 51°19.121 2°52.144 1.4 284 17.5 101990 42
2009-09-08 07:12:56 51°19.136 2°52.14 1.4 321 17.5 102000 44
2009-09-08 07:13:01 51°19.152 2°52.136 1.3 281 17.5 102000 44
2009-09-08 07:13:06 51°19.167 2°52.132 1.3 323 17.5 101990 43
2009-09-08 07:13:11 51°19.183 2°52.128 1.3 323 17.5 101990 43
2009-09-08 07:13:16 51°19.198 2°52.124 1.2 322 17.5 101990 43
2009-09-08 07:13:21 51°19.214 2°52.121 1.5 280 17.5 102000 44
2009-09-08 07:13:26 51°19.229 2°52.117 1.4 322 17.5 101990 41
2009-09-08 07:13:31 51°19.245 2°52.113 1.5 276 17.5 101990 41
2009-09-08 07:13:36 51°19.26 2°52.11 1.8 327 17.5 101990 41
2009-09-08 07:13:41 51°19.276 2°52.107 1.5 279 17.5 101990 42
2009-09-08 07:13:46 51°19.291 2°52.103 1.5 326 17.5 101990 44
2009-09-08 07:13:51 51°19.307 2°52.1 1.5 277 17.5 101990 44
2009-09-08 07:13:56 51°19.322 2°52.097 1.4 329 17.5 101990 44
2009-09-08 07:14:01 51°19.338 2°52.094 1.5 286 17.5 101990 44
2009-09-08 07:14:06 51°19.353 2°52.091 1.5 325 17.5 102000 42
2009-09-08 07:14:11 51°19.369 2°52.088 1.5 278 17.5 102000 42
2009-09-08 07:14:16 51°19.384 2°52.086 1.7 324 17.5 101990 41
2009-09-08 07:14:21 51°19.4 2°52.083 1.5 286 17.5 101990 41
2009-09-08 07:14:26 51°19.415 2°52.08 1.9 329 17.6 101990 41
2009-09-08 07:14:31 51°19.431 2°52.077 1.7 281 17.6 101990 41
2009-09-08 07:14:36 51°19.446 2°52.074 1.6 324 17.6 102000 43
2009-09-08 07:14:41 51°19.462 2°52.069 1.7 281 17.6 102000 43
2009-09-08 07:14:46 51°19.477 2°52.064 1.8 40 17.6 101990 44
2009-09-08 07:14:50 51°19.489 2°52.06 2 276 17.6 101990 44
2009-09-08 07:14:56 51°19.507 2°52.052 1.8 233 17.6 101990 44
2009-09-08 07:15:01 51°19.523 2°52.046 1.9 281 17.6 101990 44
2009-09-08 07:15:06 51°19.538 2°52.038 1.8 236 17.6 102000 42
2009-09-08 07:15:10 51°19.55 2°52.033 2 280 17.6 102000 42
2009-09-08 07:15:16 51°19.568 2°52.024 2.3 33 17.6 101990 44
2009-09-08 07:15:21 51°19.583 2°52.016 2.2 278 17.6 101990 44
2009-09-08 07:15:26 51°19.599 2°52.008 2.1 231 17.6 101990 43
2009-09-08 07:15:31 51°19.614 2°52.001 2.9 278 17.6 101990 43
2009-09-08 07:15:36 51°19.629 2°51.993 2.3 37 17.6 101990 42
2009-09-08 07:15:41 51°19.644 2°51.985 2.2 285 17.6 101990 42
2009-09-08 07:15:46 51°19.659 2°51.977 2 234 17.6 101990 43
2009-09-08 07:15:51 51°19.675 2°51.97 2.4 284 17.6 101990 43
2009-09-08 07:15:56 51°19.69 2°51.961 2.3 236 17.6 101990 42
2009-09-08 07:16:01 51°19.705 2°51.953 2.1 283 17.6 101990 42
2009-09-08 07:16:06 51°19.72 2°51.945 2.5 234 17.6 101990 42
2009-09-08 07:16:11 51°19.735 2°51.937 2.3 281 17.6 101990 42
2009-09-08 07:16:16 51°19.75 2°51.928 2.4 35 17.6 101990 42
2009-09-08 07:16:21 51°19.765 2°51.921 1.8 280 17.6 101990 42
2009-09-08 07:16:26 51°19.781 2°51.912 1.7 36 17.6 101990 43
2009-09-08 07:16:31 51°19.796 2°51.904 1.7 285 17.6 101990 43
2009-09-08 07:16:36 51°19.811 2°51.896 2.1 234 17.6 101990 43
2009-09-08 07:16:41 51°19.826 2°51.888 1.9 277 17.6 101990 43
2009-09-08 07:16:46 51°19.841 2°51.88 2.5 27 17.6 101990 42
2009-09-08 07:16:51 51°19.856 2°51.872 2.1 280 17.6 101990 42
2009-09-08 07:16:56 51°19.871 2°51.864 1.9 36 17.6 101990 42
2009-09-08 07:17:01 51°19.887 2°51.856 2.1 284 17.6 101990 42
2009-09-08 07:17:06 51°19.902 2°51.848 2.4 232 17.6 101990 41
2009-09-08 07:17:11 51°19.917 2°51.84 2.3 283 17.6 101990 41
2009-09-08 07:17:16 51°19.932 2°51.832 2.4 34 17.6 101990 41
2009-09-08 07:17:21 51°19.947 2°51.824 2.1 277 17.6 101990 41
2009-09-08 07:17:26 51°19.963 2°51.816 1.7 238 17.6 101990 41
2009-09-08 07:17:31 51°19.978 2°51.808 2.1 284 17.7 101990 41
2009-09-08 07:17:36 51°19.993 2°51.8 2.1 234 17.7 101990 43
2009-09-08 07:17:41 51°20.008 2°51.792 2 286 17.7 101990 43
2009-09-08 07:17:46 51°20.023 2°51.783 2.2 232 17.7 101990 41
2009-09-08 07:17:51 51°20.039 2°51.775 2.4 281 17.7 101990 41
2009-09-08 07:17:56 51°20.053 2°51.765 2.5 25 17.7 101990 43
2009-09-08 07:18:01 51°20.068 2°51.757 2.3 279 17.7 101990 43
2009-09-08 07:18:06 51°20.083 2°51.749 2.2 32 17.6 101990 43
2009-09-08 07:18:11 51°20.099 2°51.741 2.5 279 17.6 101990 43
2009-09-08 07:18:16 51°20.114 2°51.733 2.9 234 17.6 101990 43
2009-09-08 07:18:21 51°20.129 2°51.726 2.4 280 17.7 101990 43
2009-09-08 07:18:26 51°20.145 2°51.718 2.6 33 17.7 101990 44
2009-09-08 07:18:31 51°20.16 2°51.71 2.5 283 17.7 101990 44
2009-09-08 07:18:36 51°20.175 2°51.702 2.1 236 17.7 101990 43
2009-09-08 07:18:41 51°20.19 2°51.694 2.3 285 17.7 101990 43
2009-09-08 07:18:46 51°20.205 2°51.686 2.3 23 17.7 101990 44
2009-09-08 07:18:51 51°20.221 2°51.678 2.4 279 17.7 101990 44
2009-09-08 07:18:56 51°20.236 2°51.67 2.2 37 17.7 101990 42
2009-09-08 07:19:01 51°20.251 2°51.662 2.1 277 17.7 101990 42
2009-09-08 07:19:06 51°20.267 2°51.654 2.6 37 17.7 101990 42
2009-09-08 07:19:11 51°20.282 2°51.646 2.6 284 17.7 101990 42
2009-09-08 07:19:16 51°20.297 2°51.638 2.3 237 17.7 101990 43
2009-09-08 07:19:21 51°20.313 2°51.63 2.4 279 17.7 101990 43
2009-09-08 07:19:26 51°20.328 2°51.622 2 239 17.6 101990 40
2009-09-08 07:19:31 51°20.343 2°51.614 2.3 283 17.6 101990 40
2009-09-08 07:19:36 51°20.359 2°51.606 2.4 39 17.7 101990 42
2009-09-08 07:19:41 51°20.374 2°51.598 2.3 283 17.7 101990 42
2009-09-08 07:19:46 51°20.39 2°51.59 2.2 32 17.6 101990 43
2009-09-08 07:19:51 51°20.405 2°51.582 2 280 17.6 101990 43
2009-09-08 07:19:56 51°20.421 2°51.574 2.5 33 17.7 101990 42
2009-09-08 07:20:01 51°20.436 2°51.566 2.3 286 17.7 101990 42
2009-09-08 07:20:06 51°20.451 2°51.558 2.8 38 17.6 101990 43
2009-09-08 07:20:11 51°20.467 2°51.55 2.4 282 17.6 101990 43
2009-09-08 07:20:16 51°20.482 2°51.542 2.7 35 17.7 101990 42
2009-09-08 07:20:21 51°20.498 2°51.534 2.4 278 17.7 101990 42
2009-09-08 07:20:26 51°20.513 2°51.527 2.3 233 17.6 102000 44
2009-09-08 07:20:31 51°20.529 2°51.519 2.2 279 17.6 102000 44
2009-09-08 07:20:36 51°20.544 2°51.511 2.4 233 17.7 102000 42
2009-09-08 07:20:41 51°20.559 2°51.503 2.2 284 17.7 102000 42
2009-09-08 07:20:46 51°20.575 2°51.494 2.6 232 17.6 101990 41
2009-09-08 07:20:51 51°20.59 2°51.486 2.4 284 17.6 101990 41
2009-09-08 07:20:56 51°20.606 2°51.479 2.5 230 17.7 102000 41
2009-09-08 07:21:01 51°20.621 2°51.471 2.4 277 17.7 102000 41
2009-09-08 07:21:06 51°20.637 2°51.463 2.2 34 17.7 102000 42
2009-09-08 07:21:11 51°20.652 2°51.456 2.7 277 17.7 102000 42
2009-09-08 07:21:16 51°20.668 2°51.448 2.5 38 17.7 101990 41
2009-09-08 07:21:21 51°20.683 2°51.44 2.8 279 17.7 101990 41
2009-09-08 07:21:26 51°20.699 2°51.432 2.5 234 17.7 102000 42
2009-09-08 07:21:31 51°20.714 2°51.424 2.8 285 17.7 102000 42
2009-09-08 07:21:36 51°20.73 2°51.416 3.1 38 17.7 102000 43
2009-09-08 07:21:41 51°20.745 2°51.408 2.5 277 17.7 102000 43
2009-09-08 07:21:46 51°20.76 2°51.4 2.7 232 17.6 102000 43
2009-09-08 07:21:51 51°20.776 2°51.392 3 277 17.6 102000 43
2009-09-08 07:21:56 51°20.792 2°51.385 3.5 40 17.7 101990 41
2009-09-08 07:22:01 51°20.807 2°51.377 2.6 279 17.7 101990 41
2009-09-08 07:22:06 51°20.823 2°51.369 3 34 17.6 102000 40
2009-09-08 07:22:11 51°20.838 2°51.361 2.8 278 17.6 102000 40
2009-09-08 07:22:16 51°20.853 2°51.353 2.8 37 17.7 102000 44
2009-09-08 07:22:21 51°20.869 2°51.345 3.2 284 17.7 102000 44
2009-09-08 07:22:26 51°20.884 2°51.337 3.4 38 17.7 102000 44
2009-09-08 07:22:31 51°20.9 2°51.329 3.2 282 17.7 102000 44
2009-09-08 07:22:36 51°20.916 2°51.321 3 315 17.7 102000 41
2009-09-08 07:22:41 51°20.931 2°51.313 3.1 280 17.7 102000 41
2009-09-08 07:22:46 51°20.946 2°51.305 3.1 39 17.7 102000 44
2009-09-08 07:22:51 51°20.962 2°51.297 3.1 286 17.7 102000 44
2009-09-08 07:22:56 51°20.977 2°51.29 3.2 36 17.7 102000 42
2009-09-08 07:23:01 51°20.993 2°51.282 3.3 277 17.7 102000 42
2009-09-08 07:23:06 51°21.008 2°51.273 2.7 34 17.7 102000 42
2009-09-08 07:23:11 51°21.023 2°51.265 2.9 277 17.7 102000 42
2009-09-08 07:23:16 51°21.039 2°51.257 2.9 34 17.7 102000 42
2009-09-08 07:23:21 51°21.054 2°51.249 3 280 17.7 101990 42
2009-09-08 07:23:26 51°21.069 2°51.241 3 315 17.7 102000 42
2009-09-08 07:23:31 51°21.085 2°51.233 3.2 285 17.7 102000 42
2009-09-08 07:23:36 51°21.1 2°51.225 3.5 38 17.7 102000 42
2009-09-08 07:23:41 51°21.115 2°51.217 3.3 284 17.7 102000 42
2009-09-08 07:23:46 51°21.131 2°51.209 3.7 35 17.7 102000 44
2009-09-08 07:23:51 51°21.146 2°51.201 3.5 283 17.7 102000 44
2009-09-08 07:23:56 51°21.161 2°51.193 3.3 236 17.7 102000 44
2009-09-08 07:24:01 51°21.176 2°51.185 3.4 278 17.7 102000 44
2009-09-08 07:24:06 51°21.191 2°51.176 3.5 33 17.7 101990 44
2009-09-08 07:24:11 51°21.206 2°51.167 2.8 279 17.7 101990 44
2009-09-08 07:24:16 51°21.222 2°51.159 3.3 234 17.7 102000 44
2009-09-08 07:24:21 51°21.237 2°51.15 2.8 285 17.7 102000 44
2009-09-08 07:24:26 51°21.252 2°51.142 3 33 17.7 102000 44
2009-09-08 07:24:31 51°21.267 2°51.134 3.1 282 17.7 102000 44
2009-09-08 07:24:36 51°21.282 2°51.126 2.7 232 17.7 102000 42
2009-09-08 07:24:41 51°21.298 2°51.118 3.2 277 17.7 102000 42
2009-09-08 07:24:46 51°21.313 2°51.111 2.8 34 17.6 102000 41
2009-09-08 07:24:51 51°21.328 2°51.103 3 284 17.6 102000 41
2009-09-08 07:24:56 51°21.344 2°51.094 3.3 39 17.6 102000 43
2009-09-08 07:25:01 51°21.359 2°51.086 3.5 284 17.6 102000 43
2009-09-08 07:25:06 51°21.374 2°51.078 2.9 36 17.6 102000 42
2009-09-08 07:25:11 51°21.389 2°51.071 2.7 279 17.6 102000 42
2009-09-08 07:25:16 51°21.404 2°51.063 3.1 234 17.7 102000 44
2009-09-08 07:25:21 51°21.42 2°51.055 3 283 17.7 102000 44
2009-09-08 07:25:26 51°21.435 2°51.046 3.1 234 17.7 102000 44
2009-09-08 07:25:31 51°21.45 2°51.038 2.9 278 17.7 102000 44
2009-09-08 07:25:36 51°21.465 2°51.03 2.8 33 17.6 102000 44
2009-09-08 07:25:41 51°21.48 2°51.022 2.9 277 17.6 102000 44
2009-09-08 07:25:46 51°21.495 2°51.014 2.9 38 17.7 102000 44
2009-09-08 07:25:51 51°21.51 2°51.006 3.2 286 17.7 102000 44
2009-09-08 07:25:56 51°21.525 2°50.997 2.8 234 17.7 102000 43
2009-09-08 07:26:01 51°21.54 2°50.99 2.7 280 17.7 102000 43
2009-09-08 07:26:06 51°21.555 2°50.982 3.1 238 17.6 102000 44
2009-09-08 07:26:11 51°21.57 2°50.974 3.2 276 17.6 102000 44
2009-09-08 07:26:16 51°21.586 2°50.966 3.4 237 17.7 102000 42
2009-09-08 07:26:21 51°21.601 2°50.959 3.1 278 17.7 102000 42
2009-09-08 07:26:26 51°21.616 2°50.951 3.2 242 17.7 102000 44
2009-09-08 07:26:31 51°21.631 2°50.943 3.2 280 17.7 102000 44
2009-09-08 07:26:36 51°21.646 2°50.935 3.1 238 17.7 102000 43
2009-09-08 07:26:41 51°21.661 2°50.928 3.1 282 17.7 102000 43
2009-09-08 07:26:46 51°21.677 2°50.92 3 242 17.6 102000 42
2009-09-08 07:26:51 51°21.692 2°50.913 2.8 285 17.6 102000 42
2009-09-08 07:26:56 51°21.707 2°50.905 2.8 23 17.6 102000 44
2009-09-08 07:27:01 51°21.722 2°50.897 2.5 278 17.6 102000 44
2009-09-08 07:27:06 51°21.737 2°50.889 2.6 236 17.6 102000 42
2009-09-08 07:27:11 51°21.753 2°50.881 2.2 284 17.6 102000 42
2009-09-08 07:27:16 51°21.768 2°50.874 2.9 232 17.6 102000 42
2009-09-08 07:27:21 51°21.783 2°50.866 3.4 286 17.6 102000 43
2009-09-08 07:27:26 51°21.798 2°50.858 3.3 235 17.6 102000 41
2009-09-08 07:27:31 51°21.814 2°50.85 3 286 17.6 102000 41
2009-09-08 07:27:36 51°21.829 2°50.843 3 237 17.6 102000 42
2009-09-08 07:27:41 51°21.845 2°50.835 3 278 17.6 102000 42
2009-09-08 07:27:46 51°21.86 2°50.827 2.6 22 17.6 102000 42
2009-09-08 07:27:50 51°21.872 2°50.821 2.6 277 17.6 102000 42
2009-09-08 07:27:56 51°21.89 2°50.811 2.8 236 17.6 102000 44
2009-09-08 07:28:01 51°21.906 2°50.804 3.1 281 17.6 102000 44
2009-09-08 07:28:06 51°21.921 2°50.796 2.5 233 17.6 102000 42
2009-09-08 07:28:10 51°21.933 2°50.79 2.8 280 17.6 102000 42
2009-09-08 07:28:16 51°21.952 2°50.781 2.9 31 17.6 102000 43
2009-09-08 07:28:21 51°21.967 2°50.774 2.9 284 17.6 102000 43
2009-09-08 07:28:26 51°21.982 2°50.766 3.1 235 17.6 102000 42
2009-09-08 07:28:31 51°21.998 2°50.759 3.3 279 17.6 102000 42
2009-09-08 07:28:36 51°22.013 2°50.751 3.2 236 17.6 102000 42
2009-09-08 07:28:41 51°22.029 2°50.744 2.9 286 17.6 102000 42
2009-09-08 07:28:46 51°22.044 2°50.736 2.5 234 17.6 102000 44
2009-09-08 07:28:51 51°22.059 2°50.728 2.6 283 17.6 102000 44
2009-09-08 07:28:56 51°22.075 2°50.72 3 231 17.6 102000 44
2009-09-08 07:29:01 51°22.09 2°50.713 2.9 283 17.6 102000 44
2009-09-08 07:29:06 51°22.105 2°50.705 3.1 34 17.6 102000 44
2009-09-08 07:29:11 51°22.121 2°50.698 2.9 285 17.6 102000 44
2009-09-08 07:29:16 51°22.136 2°50.69 3.4 34 17.6 102000 42
2009-09-08 07:29:21 51°22.151 2°50.682 2.5 286 17.6 102000 42
2009-09-08 07:29:26 51°22.167 2°50.674 2.9 237 17.6 102000 42
2009-09-08 07:29:31 51°22.182 2°50.667 2.9 282 17.6 102000 42
2009-09-08 07:29:36 51°22.197 2°50.659 3.2 33 17.6 102000 42
2009-09-08 07:29:41 51°22.213 2°50.652 2.9 279 17.6 102000 42
2009-09-08 07:29:46 51°22.228 2°50.644 3.1 34 17.6 102000 44
2009-09-08 07:29:51 51°22.244 2°50.637 3 284 17.6 102000 44
2009-09-08 07:29:56 51°22.259 2°50.629 3 35 17.6 102000 44
2009-09-08 07:30:01 51°22.274 2°50.622 2.5 285 17.6 102000 44
2009-09-08 07:30:06 51°22.29 2°50.614 2.8 34 17.6 102000 41
2009-09-08 07:30:11 51°22.305 2°50.606 2.9 276 17.6 102000 41
2009-09-08 07:30:16 51°22.32 2°50.598 3.2 234 17.6 102000 44
2009-09-08 07:30:21 51°22.336 2°50.59 3.2 282 17.6 102000 44
2009-09-08 07:30:26 51°22.351 2°50.583 3.1 39 17.6 102000 44
2009-09-08 07:30:31 51°22.366 2°50.575 2.7 279 17.6 102000 44
2009-09-08 07:30:36 51°22.382 2°50.569 2.8 232 17.6 102000 44
2009-09-08 07:30:41 51°22.397 2°50.56 3 280 17.6 102000 44
2009-09-08 07:30:46 51°22.412 2°50.552 2.8 40 17.6 102000 42
2009-09-08 07:30:51 51°22.428 2°50.544 3.1 278 17.6 102000 42
2009-09-08 07:30:56 51°22.443 2°50.537 3.5 231 17.6 102000 42
2009-09-08 07:31:01 51°22.458 2°50.529 2.9 277 17.6 102000 42
2009-09-08 07:31:06 51°22.473 2°50.521 3.2 38 17.6 102000 42
2009-09-08 07:31:11 51°22.489 2°50.514 3.2 279 17.6 102000 42
2009-09-08 07:31:16 51°22.504 2°50.506 3 38 17.6 102000 43
2009-09-08 07:31:21 51°22.519 2°50.498 3.5 279 17.6 102000 43
2009-09-08 07:31:26 51°22.535 2°50.491 3.3 34 17.6 102000 42
2009-09-08 07:31:31 51°22.55 2°50.482 3.3 278 17.6 102000 42
2009-09-08 07:31:36 51°22.565 2°50.475 3.8 27 17.6 102000 42
2009-09-08 07:31:41 51°22.581 2°50.467 3.6 278 17.6 102000 42
2009-09-08 07:31:46 51°22.596 2°50.457 3.4 32 17.6 102000 44
2009-09-08 07:31:51 51°22.611 2°50.448 3.4 285 17.6 102000 44
2009-09-08 07:31:56 51°22.626 2°50.438 4.1 31 17.6 102000 43
2009-09-08 07:32:01 51°22.64 2°50.429 3.9 282 17.6 102000 43
2009-09-08 07:32:06 51°22.655 2°50.419 4.2 234 17.6 102000 44
2009-09-08 07:32:11 51°22.67 2°50.409 4.5 280 17.6 102000 44
2009-09-08 07:32:16 51°22.685 2°50.399 3.8 33 17.6 102000 42
2009-09-08 07:32:21 51°22.7 2°50.389 4.1 283 17.6 102000 42
2009-09-08 07:32:26 51°22.715 2°50.379 3.9 31 17.6 102000 42
2009-09-08 07:32:31 51°22.729 2°50.368 4.4 279 17.6 102000 42
2009-09-08 07:32:36 51°22.744 2°50.358 4.2 31 17.6 102000 44
2009-09-08 07:32:41 51°22.759 2°50.348 3.7 279 17.6 102000 44
2009-09-08 07:32:46 51°22.774 2°50.337 3.9 27 17.6 102000 41
2009-09-08 07:32:51 51°22.788 2°50.327 4.1 284 17.6 102000 41
2009-09-08 07:32:56 51°22.803 2°50.316 4.2 237 17.6 102000 44
2009-09-08 07:33:01 51°22.818 2°50.306 3.6 285 17.6 102000 44
2009-09-08 07:33:06 51°22.833 2°50.296 3.7 235 17.6 102000 44
2009-09-08 07:33:11 51°22.848 2°50.286 3.9 278 17.6 102000 44
2009-09-08 07:33:16 51°22.862 2°50.276 4 35 17.6 102000 42
2009-09-08 07:33:21 51°22.877 2°50.265 3.7 280 17.6 102000 42
2009-09-08 07:33:26 51°22.892 2°50.255 3.5 236 17.6 102000 42
2009-09-08 07:33:31 51°22.906 2°50.245 3.3 285 17.6 102000 42
2009-09-08 07:33:36 51°22.921 2°50.235 3.5 239 17.6 102000 42
2009-09-08 07:33:41 51°22.936 2°50.224 3.9 285 17.6 102000 42
2009-09-08 07:33:46 51°22.951 2°50.214 3.9 236 17.6 102000 44
2009-09-08 07:33:51 51°22.965 2°50.203 3.9 279 17.6 102000 44
2009-09-08 07:33:56 51°22.98 2°50.192 3.3 23 17.6 102000 42
2009-09-08 07:34:01 51°22.995 2°50.182 3.4 283 17.6 102000 42
2009-09-08 07:34:06 51°23.01 2°50.172 3.1 234 17.6 102000 42
2009-09-08 07:34:11 51°23.025 2°50.162 3.2 284 17.6 102000 42
2009-09-08 07:34:16 51°23.04 2°50.152 3.6 32 17.6 102000 42
2009-09-08 07:34:21 51°23.054 2°50.142 4.1 281 17.6 102000 42
2009-09-08 07:34:26 51°23.069 2°50.132 4.1 237 17.6 102000 44
2009-09-08 07:34:31 51°23.084 2°50.122 3.4 283 17.6 102000 44
2009-09-08 07:34:36 51°23.099 2°50.112 3.7 31 17.6 102000 43
2009-09-08 07:34:41 51°23.113 2°50.102 3.4 284 17.6 102000 43
2009-09-08 07:34:46 51°23.128 2°50.091 3.2 34 17.6 102000 43
2009-09-08 07:34:51 51°23.143 2°50.082 3.8 284 17.6 102000 43
2009-09-08 07:34:56 51°23.158 2°50.072 3.8 236 17.6 102000 43
2009-09-08 07:35:01 51°23.173 2°50.062 4.4 279 17.6 102000 43
2009-09-08 07:35:06 51°23.188 2°50.052 3.6 234 17.6 101990 44
2009-09-08 07:35:11 51°23.203 2°50.042 3.9 278 17.6 101990 44
2009-09-08 07:35:16 51°23.218 2°50.033 3.3 237 17.6 102000 42
2009-09-08 07:35:21 51°23.232 2°50.022 3.8 284 17.6 102000 42
2009-09-08 07:35:26 51°23.247 2°50.012 3.3 239 17.6 102000 41
2009-09-08 07:35:31 51°23.262 2°50.003 3.6 279 17.6 102000 41
2009-09-08 07:35:36 51°23.277 2°49.993 3.2 240 17.6 102000 42
2009-09-08 07:35:41 51°23.292 2°49.983 3.4 284 17.6 102000 42
2009-09-08 07:35:46 51°23.307 2°49.972 3.4 236 17.6 102000 43
2009-09-08 07:35:51 51°23.322 2°49.962 3.2 279 17.6 102000 43
2009-09-08 07:35:56 51°23.336 2°49.952 3.2 31 17.6 102000 44
2009-09-08 07:36:01 51°23.351 2°49.941 3.5 282 17.6 102000 44
2009-09-08 07:36:06 51°23.366 2°49.931 3.7 236 17.6 102000 43
2009-09-08 07:36:11 51°23.38 2°49.921 3.5 285 17.6 102000 43
2009-09-08 07:36:16 51°23.395 2°49.911 3.3 239 17.6 102000 44
2009-09-08 07:36:21 51°23.41 2°49.901 3.8 279 17.6 102000 44
2009-09-08 07:36:26 51°23.425 2°49.892 3.7 238 17.6 102000 44
2009-09-08 07:36:31 51°23.44 2°49.881 3.8 278 17.6 102000 44
2009-09-08 07:36:36 51°23.455 2°49.872 3.6 236 17.6 102000 42
2009-09-08 07:36:41 51°23.47 2°49.862 3.7 284 17.6 102000 42
2009-09-08 07:36:46 51°23.485 2°49.852 3.2 35 17.6 102000 44
2009-09-08 07:36:51 51°23.5 2°49.842 3.4 284 17.6 102000 44
2009-09-08 07:36:56 51°23.515 2°49.832 3.8 237 17.6 101990 43
2009-09-08 07:37:01 51°23.529 2°49.822 3.7 282 17.6 101990 43
2009-09-08 07:37:06 51°23.544 2°49.812 3.8 235 17.6 102000 44
2009-09-08 07:37:11 51°23.559 2°49.802 3.8 279 17.6 102000 44
2009-09-08 07:37:16 51°23.574 2°49.792 4.2 234 17.6 102000 42
2009-09-08 07:37:21 51°23.589 2°49.782 3.7 284 17.6 102000 42
2009-09-08 07:37:26 51°23.604 2°49.772 3.3 35 17.6 101990 42
2009-09-08 07:37:31 51°23.619 2°49.762 4 278 17.6 101990 42
2009-09-08 07:37:36 51°23.634 2°49.752 3.8 237 17.6 102000 42
2009-09-08 07:37:41 51°23.649 2°49.742 3.7 280 17.6 102000 42
2009-09-08 07:37:46 51°23.664 2°49.732 3.3 237 17.6 102000 44
2009-09-08 07:37:51 51°23.678 2°49.722 3.4 282 17.6 102000 44
2009-09-08 07:37:56 51°23.693 2°49.712 4.2 231 17.6 102000 44
2009-09-08 07:38:01 51°23.708 2°49.702 4.3 279 17.6 102000 44
2009-09-08 07:38:06 51°23.723 2°49.692 3.4 239 17.6 102000 43
2009-09-08 07:38:11 51°23.738 2°49.682 3.9 278 17.6 102000 43
2009-09-08 07:38:16 51°23.753 2°49.672 3.3 240 17.6 102000 44
2009-09-08 07:38:21 51°23.767 2°49.662 3.8 284 17.6 102000 44
2009-09-08 07:38:26 51°23.782 2°49.652 3.5 239 17.6 102000 42
2009-09-08 07:38:31 51°23.797 2°49.642 3.9 279 17.6 102000 42
2009-09-08 07:38:36 51°23.812 2°49.632 3.7 237 17.6 101990 44
2009-09-08 07:38:41 51°23.827 2°49.621 3.8 283 17.6 101990 44
2009-09-08 07:38:46 51°23.841 2°49.611 4.1 29 17.6 102000 44
2009-09-08 07:38:50 51°23.853 2°49.603 3.5 285 17.6 102000 44
2009-09-08 07:38:56 51°23.871 2°49.591 4 31 17.6 102000 43
2009-09-08 07:39:01 51°23.886 2°49.581 3.7 279 17.6 102000 43
2009-09-08 07:39:06 51°23.901 2°49.571 3.9 39 17.6 102000 44
2009-09-08 07:39:10 51°23.913 2°49.563 4.2 277 17.6 102000 44
2009-09-08 07:39:16 51°23.931 2°49.551 4.3 32 17.6 102000 44
2009-09-08 07:39:21 51°23.946 2°49.54 4.6 284 17.6 102000 44
2009-09-08 07:39:26 51°23.96 2°49.53 3.6 234 17.6 102000 42
2009-09-08 07:39:31 51°23.975 2°49.52 3.9 284 17.6 102000 42
2009-09-08 07:39:36 51°23.99 2°49.509 3.9 235 17.6 102000 42
2009-09-08 07:39:41 51°24.004 2°49.499 4.3 277 17.6 102000 42
2009-09-08 07:39:46 51°24.019 2°49.489 3.5 29 17.6 102000 44
2009-09-08 07:39:51 51°24.034 2°49.479 3.6 284 17.6 102000 44
2009-09-08 07:39:56 51°24.049 2°49.468 4.2 32 17.6 102000 43
2009-09-08 07:40:01 51°24.063 2°49.458 4.3 281 17.6 102000 43
2009-09-08 07:40:06 51°24.078 2°49.448 3.7 37 17.6 101990 43
2009-09-08 07:40:11 51°24.093 2°49.438 3.6 285 17.6 101990 43
2009-09-08 07:40:16 51°24.108 2°49.427 4.4 233 17.6 102000 44
2009-09-08 07:40:21 51°24.122 2°49.417 3.9 285 17.6 102000 44
2009-09-08 07:40:26 51°24.137 2°49.407 4 233 17.6 102000 44
2009-09-08 07:40:31 51°24.152 2°49.397 3.8 278 17.6 102000 44
2009-09-08 07:40:36 51°24.167 2°49.386 3.6 234 17.7 102000 44
2009-09-08 07:40:41 51°24.181 2°49.375 4.4 284 17.7 102000 44
2009-09-08 07:40:46 51°24.196 2°49.365 4.4 232 17.7 102000 42
2009-09-08 07:40:51 51°24.21 2°49.354 4.5 281 17.7 102000 42
2009-09-08 07:40:56 51°24.225 2°49.344 3.8 237 17.7 102000 44
2009-09-08 07:41:01 51°24.24 2°49.334 3.9 283 17.7 102000 44
2009-09-08 07:41:06 51°24.255 2°49.323 4.3 231 17.7 102000 44
2009-09-08 07:41:11 51°24.269 2°49.313 3.8 279 17.7 102000 44
2009-09-08 07:41:16 51°24.284 2°49.302 4.3 33 17.7 102000 44
2009-09-08 07:41:21 51°24.299 2°49.292 4.3 285 17.7 102000 44
2009-09-08 07:41:26 51°24.313 2°49.281 3.8 37 17.7 102000 43
2009-09-08 07:41:31 51°24.328 2°49.27 4.4 280 17.7 102000 43
2009-09-08 07:41:36 51°24.343 2°49.26 4 35 17.7 101990 42
2009-09-08 07:41:41 51°24.358 2°49.25 4.7 278 17.7 101990 42
2009-09-08 07:41:46 51°24.372 2°49.239 3.6 28 17.7 102000 43
2009-09-08 07:41:51 51°24.387 2°49.229 3.6 278 17.7 102000 43
2009-09-08 07:41:56 51°24.401 2°49.218 4.5 240 17.7 102000 44
2009-09-08 07:42:01 51°24.416 2°49.208 3.6 279 17.7 102000 44
2009-09-08 07:42:06 51°24.431 2°49.197 4.2 30 17.7 102000 42
2009-09-08 07:42:11 51°24.446 2°49.187 4.1 282 17.7 102000 42
2009-09-08 07:42:16 51°24.46 2°49.177 4.1 32 17.7 102000 42
2009-09-08 07:42:21 51°24.475 2°49.166 3.4 281 17.7 102000 42
2009-09-08 07:42:26 51°24.49 2°49.156 4 240 17.7 102000 44
2009-09-08 07:42:31 51°24.504 2°49.146 4.2 279 17.7 102000 44
2009-09-08 07:42:36 51°24.519 2°49.136 3.4 239 17.7 101990 44
2009-09-08 07:42:41 51°24.534 2°49.125 3.9 283 17.7 101990 44
2009-09-08 07:42:46 51°24.549 2°49.115 3.6 32 17.6 102000 42
2009-09-08 07:42:51 51°24.563 2°49.104 4 278 17.6 102000 42
2009-09-08 07:42:56 51°24.578 2°49.095 3.5 239 17.6 102000 43
2009-09-08 07:43:01 51°24.593 2°49.084 3.8 282 17.6 102000 43
2009-09-08 07:43:06 51°24.608 2°49.074 3.4 240 17.6 102000 43
2009-09-08 07:43:11 51°24.623 2°49.064 3.7 285 17.6 102000 43
2009-09-08 07:43:16 51°24.637 2°49.053 3.5 31 17.6 102000 42
2009-09-08 07:43:21 51°24.652 2°49.043 4.2 278 17.6 102000 42
2009-09-08 07:43:26 51°24.667 2°49.033 3.8 238 17.6 102000 41
2009-09-08 07:43:31 51°24.681 2°49.023 3.9 283 17.6 102000 41
2009-09-08 07:43:36 51°24.696 2°49.013 3.8 239 17.6 102000 42
2009-09-08 07:43:41 51°24.711 2°49.002 3.3 283 17.6 102000 42
2009-09-08 07:43:46 51°24.726 2°48.992 4 20 17.6 102000 42
2009-09-08 07:43:51 51°24.741 2°48.981 3.8 280 17.6 102000 42
2009-09-08 07:43:56 51°24.756 2°48.971 4.1 237 17.6 102000 42
2009-09-08 07:44:01 51°24.77 2°48.96 3.4 284 17.6 102000 42
2009-09-08 07:44:06 51°24.784 2°48.951 3.5 241 17.6 102000 42
2009-09-08 07:44:11 51°24.798 2°48.941 3.7 284 17.6 102000 42
2009-09-08 07:44:16 51°24.81 2°48.932 3.3 243 17.6 102000 44
2009-09-08 07:44:21 51°24.822 2°48.924 3.5 284 17.6 102000 44
2009-09-08 07:44:26 51°24.834 2°48.915 3.3 243 17.6 102000 44
2009-09-08 07:44:31 51°24.846 2°48.906 2.8 280 17.6 102000 44
2009-09-08 07:44:36 51°24.857 2°48.897 3 247 17.6 102000 42
2009-09-08 07:44:41 51°24.867 2°48.889 3 278 17.6 102000 42
2009-09-08 07:44:46 51°24.878 2°48.88 3.7 258 17.6 102000 44
2009-09-08 07:44:51 51°24.888 2°48.873 3.2 283 17.6 102000 44
2009-09-08 07:44:56 51°24.899 2°48.864 3.9 256 17.7 102000 43
2009-09-08 07:45:01 51°24.909 2°48.857 3.6 279 17.7 102000 43
2009-09-08 07:45:06 51°24.919 2°48.849 3.1 257 17.7 102000 42
2009-09-08 07:45:11 51°24.929 2°48.841 3 281 17.7 102000 42
2009-09-08 07:45:16 51°24.94 2°48.834 3.1 258 17.7 102000 42
2009-09-08 07:45:21 51°24.95 2°48.828 2.6 284 17.7 102000 42
2009-09-08 07:45:26 51°24.96 2°48.821 2.3 252 17.7 102000 43
2009-09-08 07:45:31 51°24.97 2°48.815 2.3 281 17.7 102000 43
2009-09-08 07:45:36 51°24.98 2°48.808 2.6 254 17.6 102000 44
2009-09-08 07:45:41 51°24.99 2°48.802 2.6 278 17.6 102000 44
2009-09-08 07:45:46 51°25 2°48.796 2.7 256 17.7 102000 44
2009-09-08 07:45:51 51°25.01 2°48.79 2.9 285 17.7 102000 44
2009-09-08 07:45:56 51°25.02 2°48.785 2.7 255 17.7 102000 43
2009-09-08 07:46:01 51°25.03 2°48.779 2.5 279 17.7 102000 43
2009-09-08 07:46:06 51°25.04 2°48.774 2.3 251 17.7 102000 43
2009-09-08 07:46:11 51°25.05 2°48.768 2.6 280 17.7 102000 43
2009-09-08 07:46:16 51°25.06 2°48.763 2.5 258 17.7 102000 43
2009-09-08 07:46:21 51°25.07 2°48.758 3.1 279 17.7 102000 43
2009-09-08 07:46:26 51°25.08 2°48.753 2.8 258 17.7 102000 44
2009-09-08 07:46:31 51°25.09 2°48.748 1.5 285 17.7 102000 44
2009-09-08 07:46:36 51°25.1 2°48.743 1.8 262 17.7 102000 43
2009-09-08 07:46:41 51°25.11 2°48.739 1.9 278 17.7 102000 43
2009-09-08 07:46:46 51°25.118 2°48.735 2.1 269 17.7 102000 44
2009-09-08 07:46:51 51°25.126 2°48.73 1.4 286 17.7 102000 44
2009-09-08 07:46:56 51°25.134 2°48.727 2 269 17.7 102000 42
2009-09-08 07:47:01 51°25.142 2°48.723 1.5 283 17.7 102000 42
2009-09-08 07:47:06 51°25.149 2°48.719 2 270 17.7 102000 42
2009-09-08 07:47:11 51°25.155 2°48.716 1.5 85 17.7 102000 42
2009-09-08 07:47:16 51°25.162 2°48.713 1.5 33 17.7 102000 43
2009-09-08 07:47:21 51°25.169 2°48.711 1.9 79 17.7 102000 43
2009-09-08 07:47:26 51°25.175 2°48.708 1.9 33 17.7 102010 43
2009-09-08 07:47:31 51°25.181 2°48.706 2 76 17.7 102010 43
2009-09-08 07:47:36 51°25.188 2°48.703 1.9 32 17.7 102000 42
2009-09-08 07:47:41 51°25.194 2°48.702 1.9 83 17.7 102000 42
2009-09-08 07:47:46 51°25.2 2°48.7 1.8 38 17.7 102000 44
2009-09-08 07:47:51 51°25.205 2°48.699 1.7 79 17.7 102000 44
2009-09-08 07:47:56 51°25.211 2°48.698 1.8 34 17.7 102000 42
2009-09-08 07:48:01 51°25.216 2°48.699 1.2 78 17.7 102000 42
2009-09-08 07:48:06 51°25.221 2°48.7 1.8 35 17.7 102010 44
2009-09-08 07:48:11 51°25.225 2°48.701 1.6 41 17.7 102010 44
2009-09-08 07:48:16 51°25.229 2°48.703 2.5 42 17.7 102000 43
2009-09-08 07:48:21 51°25.233 2°48.705 2.9 38 17.7 102000 43
2009-09-08 07:48:26 51°25.236 2°48.708 2.8 34 17.7 102000 42
2009-09-08 07:48:31 51°25.239 2°48.711 2.9 34 17.7 102000 42
2009-09-08 07:48:36 51°25.241 2°48.714 3.1 33 17.8 102010 43
2009-09-08 07:48:41 51°25.244 2°48.718 3.4 31 17.8 102010 43
2009-09-08 07:48:46 51°25.245 2°48.722 3.7 26 17.7 102010 43
2009-09-08 07:48:51 51°25.247 2°48.725 3.9 22 17.7 102010 43
2009-09-08 07:48:56 51°25.248 2°48.729 3.8 21 17.7 102000 44
2009-09-08 07:49:01 51°25.248 2°48.733 4.1 20 17.7 102000 44
2009-09-08 07:49:06 51°25.248 2°48.737 3.9 19 17.8 102000 42
2009-09-08 07:49:11 51°25.248 2°48.741 4 17 17.8 102000 42
2009-09-08 07:49:16 51°25.248 2°48.745 4.7 16 17.8 102010 44
2009-09-08 07:49:21 51°25.247 2°48.749 4.8 10 17.8 102010 44
2009-09-08 07:49:26 51°25.245 2°48.753 4.8 9 17.8 102000 42
2009-09-08 07:49:31 51°25.244 2°48.756 4.8 7 17.8 102000 42
2009-09-08 07:49:36 51°25.242 2°48.76 4.2 6 17.8 102010 44
2009-09-08 07:49:41 51°25.24 2°48.763 4.7 1 17.8 102010 44
2009-09-08 07:49:46 51°25.237 2°48.766 5 360 17.8 102010 44
2009-09-08 07:49:51 51°25.235 2°48.769 5.3 357 17.8 102010 44
2009-09-08 07:49:56 51°25.231 2°48.771 5.1 356 17.7 102010 43
2009-09-08 07:50:01 51°25.228 2°48.773 5.6 352 17.7 102010 43
2009-09-08 07:50:06 51°25.224 2°48.774 5.8 353 17.7 102000 43
2009-09-08 07:50:11 51°25.221 2°48.775 6.2 349 17.7 102000 43
2009-09-08 07:50:16 51°25.216 2°48.776 5.7 349 17.7 102000 43
2009-09-08 07:50:21 51°25.212 2°48.776 6.4 348 17.7 102010 43
2009-09-08 07:50:26 51°25.208 2°48.776 6.3 345 17.7 102000 44
2009-09-08 07:50:31 51°25.203 2°48.776 6.4 279 17.7 102000 44
2009-09-08 07:50:36 51°25.199 2°48.776 5.5 346 17.7 102000 42
2009-09-08 07:50:41 51°25.194 2°48.774 6.4 280 17.7 102000 42
2009-09-08 07:50:46 51°25.189 2°48.773 5.5 341 17.6 102000 43
2009-09-08 07:50:51 51°25.184 2°48.771 6.3 281 17.6 102000 43
2009-09-08 07:50:56 51°25.18 2°48.769 6.5 336 17.6 102000 43
2009-09-08 07:51:01 51°25.175 2°48.765 6.2 285 17.6 102000 42
2009-09-08 07:51:06 51°25.171 2°48.762 6 334 17.6 102000 43
2009-09-08 07:51:11 51°25.166 2°48.758 5.3 277 17.6 102000 43
2009-09-08 07:51:16 51°25.162 2°48.754 5.4 329 17.6 102000 43
2009-09-08 07:51:21 51°25.158 2°48.749 5.2 283 17.6 102000 43
2009-09-08 07:51:26 51°25.154 2°48.744 5.3 326 17.6 102000 43
2009-09-08 07:51:31 51°25.149 2°48.738 5.9 279 17.6 102000 41
2009-09-08 07:51:36 51°25.145 2°48.732 4.9 326 17.6 102000 41
2009-09-08 07:51:41 51°25.141 2°48.726 5.9 278 17.6 102000 44
2009-09-08 07:51:46 51°25.138 2°48.72 5.9 324 17.6 102010 44
2009-09-08 07:51:51 51°25.134 2°48.713 5.9 279 17.6 102010 44
2009-09-08 07:51:56 51°25.13 2°48.707 5.9 322 17.6 102010 44
2009-09-08 07:52:01 51°25.126 2°48.7 5.8 284 17.6 102000 42
2009-09-08 07:52:06 51°25.122 2°48.692 5.5 322 17.6 102010 43
2009-09-08 07:52:10 51°25.12 2°48.686 5.6 321 17.6 102010 43
2009-09-08 07:52:16 51°25.116 2°48.676 5.7 318 17.7 102010 44
2009-09-08 07:52:21 51°25.113 2°48.668 6 278 17.7 102010 44
2009-09-08 07:52:26 51°25.11 2°48.659 5.2 317 17.7 102010 44
2009-09-08 07:52:31 51°25.107 2°48.65 6 282 17.7 102010 44
2009-09-08 07:52:36 51°25.104 2°48.64 6.3 38 17.7 102010 44
2009-09-08 07:52:41 51°25.102 2°48.63 6.6 279 17.7 102000 43
2009-09-08 07:52:46 51°25.1 2°48.621 6.3 34 17.7 102000 43
2009-09-08 07:52:51 51°25.098 2°48.611 6.5 277 17.7 102000 43
2009-09-08 07:52:56 51°25.096 2°48.602 5 34 17.7 102000 43
2009-09-08 07:53:01 51°25.095 2°48.592 5.3 282 17.7 102000 43
2009-09-08 07:53:06 51°25.094 2°48.582 5 35 17.7 102000 43
2009-09-08 07:53:11 51°25.093 2°48.573 6 280 17.7 102000 43
2009-09-08 07:53:16 51°25.092 2°48.564 6.1 34 17.7 102000 43
2009-09-08 07:53:21 51°25.091 2°48.555 6 281 17.7 102000 44
2009-09-08 07:53:26 51°25.091 2°48.546 5.8 239 17.7 102000 43
2009-09-08 07:53:31 51°25.091 2°48.537 5.8 279 17.7 102000 43
2009-09-08 07:53:36 51°25.091 2°48.528 4.5 242 17.7 102000 43
2009-09-08 07:53:41 51°25.092 2°48.519 4.3 282 17.7 102000 43
2009-09-08 07:53:46 51°25.092 2°48.511 4.4 246 17.7 102000 43
2009-09-08 07:53:51 51°25.093 2°48.503 4.2 284 17.7 102000 43
2009-09-08 07:53:56 51°25.094 2°48.495 5.1 248 17.7 102000 43
2009-09-08 07:54:01 51°25.096 2°48.488 5.3 280 17.7 102000 43
2009-09-08 07:54:06 51°25.097 2°48.48 5.4 255 17.8 102000 42
2009-09-08 07:54:10 51°25.098 2°48.475 5.4 256 17.8 102000 42
2009-09-08 07:54:16 51°25.1 2°48.467 4.1 257 17.8 102000 42
2009-09-08 07:54:21 51°25.102 2°48.46 4.2 285 17.8 102010 43
2009-09-08 07:54:26 51°25.104 2°48.454 3.2 262 17.8 102010 43
2009-09-08 07:54:31 51°25.106 2°48.449 2.6 284 17.8 102010 43
2009-09-08 07:54:36 51°25.108 2°48.443 3 264 17.8 102010 43
2009-09-08 07:54:41 51°25.111 2°48.438 3.7 282 17.8 102010 43
2009-09-08 07:54:46 51°25.113 2°48.433 3.6 269 17.8 102010 43
2009-09-08 07:54:51 51°25.115 2°48.428 4.2 81 17.8 102010 44
2009-09-08 07:54:56 51°25.118 2°48.424 4.3 43 17.8 102010 44
2009-09-08 07:55:01 51°25.12 2°48.42 3.7 77 17.8 102010 43
2009-09-08 07:55:06 51°25.122 2°48.416 3.8 38 17.8 102010 44
2009-09-08 07:55:10 51°25.125 2°48.414 3 82 17.8 102010 44
2009-09-08 07:55:16 51°25.128 2°48.41 3.4 37 17.8 102010 44
2009-09-08 07:55:21 51°25.13 2°48.407 3 75 17.8 102010 42
2009-09-08 07:55:26 51°25.132 2°48.405 3.1 37 17.8 102010 42
2009-09-08 07:55:31 51°25.135 2°48.402 3 80 17.8 102010 42
2009-09-08 07:55:36 51°25.137 2°48.4 3.3 32 17.8 102010 42
2009-09-08 07:55:41 51°25.14 2°48.399 3.3 76 17.8 102010 42
2009-09-08 07:55:46 51°25.142 2°48.397 3.1 33 17.8 102010 42
2009-09-08 07:55:51 51°25.144 2°48.396 2.2 82 17.8 102010 42
2009-09-08 07:55:56 51°25.146 2°48.395 1.9 39 17.8 102010 44
2009-09-08 07:56:01 51°25.149 2°48.394 2 83 17.8 102010 44
2009-09-08 07:56:06 51°25.15 2°48.393 1.6 38 17.8 102020 42
2009-09-08 07:56:10 51°25.152 2°48.393 2.1 80 17.8 102020 42
2009-09-08 07:56:16 51°25.154 2°48.393 3.6 35 17.9 102020 45
2009-09-08 07:56:21 51°25.156 2°48.393 3.7 77 17.9 102020 45
2009-09-08 07:56:26 51°25.158 2°48.394 3.7 31 17.9 102020 45
2009-09-08 07:56:31 51°25.159 2°48.394 3.9 44 17.9 102010 44
2009-09-08 07:56:36 51°25.161 2°48.395 3.6 43 17.9 102010 44
2009-09-08 07:56:41 51°25.162 2°48.396 3.2 36 17.9 102010 44
2009-09-08 07:56:46 51°25.163 2°48.397 3.8 36 17.9 102010 44
2009-09-08 07:56:51 51°25.164 2°48.398 3.4 37 17.9 102020 41
2009-09-08 07:56:56 51°25.164 2°48.4 3.4 35 17.8 102010 44
2009-09-08 07:57:01 51°25.165 2°48.401 3.4 34 17.8 102010 44
2009-09-08 07:57:06 51°25.166 2°48.402 3.9 33 17.9 102010 42
2009-09-08 07:57:11 51°25.166 2°48.404 4.2 28 17.9 102010 42
2009-09-08 07:57:16 51°25.166 2°48.406 3.8 28 17.9 102010 42
2009-09-08 07:57:21 51°25.166 2°48.408 4.5 21 17.9 102010 44
2009-09-08 07:57:26 51°25.166 2°48.411 4.1 23 17.9 102010 44
2009-09-08 07:57:31 51°25.166 2°48.415 4.2 20 17.9 102020 43
2009-09-08 07:57:36 51°25.166 2°48.419 3.8 17 17.9 102020 43
2009-09-08 07:57:41 51°25.166 2°48.424 4.5 16 17.9 102010 45
2009-09-08 07:57:46 51°25.165 2°48.43 4.2 13 17.9 102010 44
2009-09-08 07:57:51 51°25.164 2°48.436 4.8 12 17.9 102010 44
2009-09-08 07:57:56 51°25.163 2°48.442 5.4 10 17.9 102010 44
2009-09-08 07:58:01 51°25.161 2°48.449 5.5 9 17.9 102010 43
2009-09-08 07:58:06 51°25.159 2°48.456 5.2 8 17.9 102010 43
2009-09-08 07:58:11 51°25.157 2°48.462 5.1 9 17.9 102010 42
2009-09-08 07:58:16 51°25.154 2°48.469 3.9 5 17.9 102010 44
2009-09-08 07:58:21 51°25.151 2°48.476 4.2 6 17.9 102010 44
2009-09-08 07:58:26 51°25.147 2°48.483 5.1 3 17.9 102010 42
2009-09-08 07:58:30 51°25.144 2°48.488 4.9 2 17.9 102010 42
2009-09-08 07:58:36 51°25.139 2°48.495 5.5 2 17.9 102010 42
2009-09-08 07:58:41 51°25.135 2°48.5 5.4 -999 17.8 102010 43
2009-09-08 07:58:46 51°25.131 2°48.505 6 -999 17.8 102010 43
2009-09-08 07:58:51 51°25.126 2°48.509 5.6 358 17.8 102010 44
2009-09-08 07:58:56 51°25.122 2°48.513 6.1 357 17.8 102010 44
2009-09-08 07:59:01 51°25.117 2°48.517 5.5 357 17.8 102010 44